Cloud_Cover
24 80 13 5 5 5 5 6 5 86 52 24 5 5 67 5 77 99 2 0 0 0 0 0 0 0 4 0 1 5 3 0 0 0 0 0 0 0 0 0 0 0 0 0 0 0 0 0 0
5 18 66 5 5 12 18 98 49 73 38 44 5 5 31 52 33 33 4 3 3 3 1 0 0 0 0 0 0 0 0 0 0 0 0 0 0 0 0 0 0 0 0 0 0 0 0 0 0
5 5 5 5 5 6 48 100 88 100 88 7 5 4 25 9 31 23 11 5 5 5 4 0 0 0 0 0 0 0 0 0 0 0 0 0 0 0 0 0 0 0 0 0 0 0 0 0 0
100 22 5 5 2 75 75 93 11 91 6 6 2 0 4 2 5 5 43 5 2 5 3 10 0 0 0 0 0 0 0 0 0 0 0 0 0 0 0 0 0 0 0 0 0 0 0 0 0
89 98 7 5 5 100 76 98 82 100 99 57 5 2 3 2 5 5 5 5 5 0 0 0 0 0 0 0 0 0 0 0 0 0 0 0 0 0 0 0 0 0 0 0 0 0 0 0 0
42 84 57 9 52 94 100 91 47 100 100 100 78 32 61 1 5 5 11 5 5 3 0 0 3 0 0 0 13 0 0 0 0 0 0 0 0 0 0 0 0 0 0 0 0 0 0 0 0
6 14 64 100 100 100 100 78 100 100 100 100 74 100 86 15 9 5 3 3 3 0 0 0 1 3 7 0 0 6 0 0 0 0 0 0 0 0 0 0 0 0 0 0 0 0 0 0 0
5 16 5 99 100 98 100 98 100 100 100 100 99 92 100 100 41 3 5 0 0 1 3 3 0 2 5 30 16 2 0 0 0 0 0 0 0 0 0 0 0 0 0 0 0 0 0 4 5
2 5 1 15 100 100 100 98 100 92 98 55 100 100 53 96 94 26 37 58 5 3 4 5 5 5 5 0 35 13 2 0 0 0 0 0 0 0 0 0 0 0 0 0 0 0 0 0 0
0 0 2 75 100 100 100 100 100 99 83 38 98 7 7 28 95 64 79 98 52 58 17 16 9 58 34 5 8 3 0 2 5 3 3 0 1 2 3 4 4 3 1 0 0 0 0 0 0
0 0 5 6 100 100 100 100 97 100 100 91 95 100 28 98 31 83 99 78 51 61 15 100 79 90 48 38 36 5 5 5 5 5 5 5 5 5 5 5 5 5 5 5 4 4 0 4 4
0 0 0 3 58 99 11 96 91 100 100 100 100 95 6 72 33 100 100 100 100 21 98 100 100 100 84 80 93 78 87 36 9 5 6 5 5 5 5 78 11 5 49 5 5 5 5 5 3
0 0 0 0 0 6 2 6 5 100 100 100 100 100 100 100 100 100 100 98 100 98 100 64 100 100 100 57 100 100 100 100 57 74 100 89 96 54 42 11 34 66 62 5 5 5 34 30 49
0 0 0 0 0 0 1 70 100 86 100 100 100 90 100 100 100 100 100 100 100 97 32 100 97 100 100 53 56 100 100 69 33 69 69 77 76 82 100 62 98 100 100 99 100 84 100 99 100
0 0 0 5 5 5 5 5 0 34 27 100 100 100 100 100 100 100 100 100 100 100 35 90 100 100 100 81 92 99 100 72 84 91 58 99 92 99 86 46 20 78 100 77 82 95 100 100 100
0 0 0 5 5 5 40 5 5 5 12 22 100 100 100 100 100 100 100 100 100 100 100 100 100 100 100 81 64 100 100 100 100 100 100 100 100 100 88 90 100 94 73 100 100 100 100 100 94
0 0 0 5 24 79 9 30 65 78 5 5 3 100 100 100 100 100 100 100 100 100 100 100 100 100 100 100 100 100 100 100 100 100 100 100 100 100 83 99 100 98 100 95 87 74 58 85 100
0 0 0 4 5 5 53 94 68 41 5 5 5 70 60 100 100 100 100 100 100 100 100 100 100 100 96 100 100 100 100 67 88 100 100 100 100 100 100 100 100 100 100 100 100 100 100 100 100
0 5 5 4 0 0 5 5 80 99 11 5 5 5 6 5 43 100 100 100 100 100 100 100 42 90 86 33 100 100 100 100 100 100 100 100 100 100 100 100 100 100 5 40 84 100 100 29 4
0 1 0 0 0 0 16 96 95 100 5 5 71 71 100 16 5 5 5 80 100 100 100 100 100 88 100 100 100 100 100 78 64 100 64 22 5 1 4 5 2 1 0 0 0 0 0 0 0
0 0 0 0 0 0 0 3 4 42 40 5 6 6 19 92 6 5 5 4 5 36 94 100 100 100 100 100 100 99 97 97 91 69 6 5 0 0 0 0 0 2 0 0 0 0 0 0 0
0 0 0 0 0 0 0 0 0 0 0 3 5 5 5 5 35 24 5 6 5 8 6 8 16 51 34 14 11 2 1 2 2 1 56 23 1 2 2 3 2 0 0 0 0 0 0 0 2
0 0 0 1 0 0 0 0 0 0 1 1 0 0 0 3 5 21 53 5 22 89 97 60 5 24 81 6 5 5 3 5 4 48 44 1 96 0 0 0 0 0 0 0 0 5 87 0 3
0 0 0 3 0 0 0 0 0 0 0 28 6 5 1 0 0 0 0 5 4 5 6 14 5 5 5 5 4 0 5 2 0 0 36 23 2 38 90 0 0 0 80 100 100 100 100 99 100
0 0 0 3 2 0 0 0 0 0 0 25 54 90 12 0 0 0 0 0 0 0 0 4 27 10 2 0 0 0 0 0 0 0 0 0 0 0 60 1 85 91 100 100 100 100 100 100 100
100 99 83 23 15 82 99 96 100 94 100 99 99 4 0 0 0 0 0 0 0 0 0 0 0 0 0 0 0 0 0 0 0 0 0 0 0 0 0 19 19 99 100 100 100 100 100 100 100
100 86 100 100 98 14 58 36 100 100 92 95 100 100 98 9 1 0 0 0 1 0 0 2 0 4 0 9 0 0 0 0 0 0 0 0 0 0 0 0 0 0 99 75 100 100 100 100 100
100 100 100 100 78 36 53 100 100 100 55 100 99 96 94 64 24 23 5 3 4 0 5 5 2 5 95 100 22 4 0 0 0 0 0 0 0 0 0 0 0 0 27 98 100 100 100 100 100
100 100 100 100 96 95 100 100 100 100 100 100 100 98 53 18 98 99 78 5 5 0 5 92 60 3 3 8 9 86 96 0 0 0 0 0 0 0 0 0 0 0 64 100 100 100 100 100 100
9 27 100 100 56 99 93 35 100 100 100 100 100 100 100 100 100 42 66 100 99 35 1 9 8 5 3 1 5 12 8 18 0 0 0 0 0 0 0 0 0 2 32 100 100 100 100 100 100